Flag for Switzerland Weather past 2 weeks in Riehen, Basel-Stadt, Switzerland

Now
60 °F

Overcast.


Feels Like: 60 °F
Forecast: 56 / 72 °F
Wind: 2 mph from Southeast

Location: Bale-Mulhouse

Current Time: Sep 30, 2014 at 10:53:33 PM

Latest Report: Sep 30, 2014 at 10:00 PM


Visibility: 3 mi

Pressure: 30.30 "Hg

Humidity: 95%

Dew point: 58 °F

Location of RiehenLocation

Historic Weather in Riehen — Graph

°F

Riehen temperature yesterday

Maximum temperature yesterday: 77 °F (at 2:00 PM)
Minimum temperature yesterday: 54 °F (at 7:00 AM)
Average temperature yesterday: 64 °F

Past Weeks' High & Low Weather Summary

 TemperatureHumidityPressure
High78 °F (Sep 16, 4:00 PM)99% (Sep 16, 7:00 AM)30.36 "Hg (Sep 16, 7:00 AM)
Low40 °F (Sep 24, 6:00 AM)43% (Sep 28, 4:00 PM)29.80 "Hg (Sep 17, 4:00 PM)
Average60 °F82%30.10 "Hg
* Reported Sep 15 9:00 PM — Sep 30 9:00 PM, Riehen, Weather by CustomWeather, © 2014

Note: Actual official high and low records may vary slightly from our data, if they occured in-between our weather recording intervals... More about our weather records

Advertising

Riehen weather history for previous 24 hours

 ConditionsComfort  
Time TempWeatherWind HumidityBarometerVisibility
9:00 PM
Sep 30
62 °FOvercast.2 mph94%30.30 "Hg4 mi
8:00 PM63 °FLight rain. Overcast.1 mph92%30.29 "Hg5 mi
7:00 PM64 °FOvercast.6 mph92%30.28 "Hg3 mi
6:00 PM67 °FSprinkles. Overcast.6 mph81%30.27 "Hg6 mi
5:00 PM71 °FOvercast.1 mph65%30.26 "Hg9 mi
4:00 PM71 °FOvercast.2 mph64%30.27 "Hg12 mi
3:00 PM70 °FOvercast.3 mph64%30.28 "Hg12 mi
2:00 PM69 °FOvercast.1 mph67%30.29 "Hg12 mi
1:00 PM68 °FOvercast.1 mph67%30.30 "Hg12 mi
12:00 PM67 °FOvercast.1 mph76%30.30 "Hg19 mi
11:00 AM65 °FOvercast.1 mph79%30.30 "Hg19 mi
10:00 AM64 °FOvercast.2 mph84%30.30 "Hg19 mi
9:00 AM61 °FOvercast.1 mph91%30.29 "Hg19 mi
8:00 AM60 °FOvercast.1 mph93%30.29 "Hg19 mi
7:00 AM59 °FOvercast.2 mph93%30.29 "Hg12 mi
6:00 AM60 °FOvercast.2 mph92%30.28 "Hg12 mi
5:00 AM60 °FOvercast.No wind92%30.28 "Hg16 mi
4:00 AM60 °FOvercast.No wind92%30.28 "Hg16 mi
3:00 AM60 °FOvercast.2 mph93%30.28 "Hg17 mi
2:00 AM59 °FOvercast.2 mph91%30.29 "Hg13 mi
1:00 AM61 °FOvercast.2 mph89%30.29 "Hg17 mi
12:00 AM62 °FOvercast.2 mph87%30.29 "Hg16 mi
11:00 PM
Sep 29
63 °FOvercast.1 mph84%30.28 "Hg16 mi
10:00 PM63 °FOvercast.3 mph82%30.29 "Hg16 mi
Weather by CustomWeather, © 2014

See weather overviewHow to use our weather pages